This demonstration page uses our WeatherBlox Daily Observations layout. Learn more.

Left ArrowRight Arrow

44.89941, -97.11507

Hourly Observations for May 15, 2022

Temp ( °F °C ) Dew Point ( °F °C ) Humidity (%) Winds ( mph kmh ) Pressure ( in mb ) Visibility ( mi km ) Precip ( " mm )
12:53 am 00:53 Clear 48 8.9 38 3.3 68 68 WSW 7 11 29.97 1015 10 16 0.00 0.00
1:53 am 01:53 Clear 47 8.3 40 4.4 77 77 SW 7 11 29.98 1015 10 16 0.00 0.00
2:53 am 02:53 Clear 46 7.8 38 3.3 73 73 WSW 9 15 29.98 1015 10 16 0.00 0.00
3:53 am 03:53 Clear 47 8.3 37 2.8 69 69 W 9 15 29.98 1015 10 16 0.00 0.00
4:53 am 04:53 Clear 48 8.9 39 3.9 71 71 SW 8 13 29.99 1016 10 16 0.00 0.00
5:53 am 05:53 Clear 47 8.3 40 4.4 77 77 Calm 30.00 1016 10 16 0.00 0.00
6:53 am 06:53 Sunny 47 8.3 41 5 80 80 Calm 30.01 1016 10 16 0.00 0.00
7:53 am 07:53 Sunny 52 11.1 42 5.6 69 69 WSW 7 11 30.01 1016 10 16 0.00 0.00
8:53 am 08:53 Sunny 58 14.4 41 5 53 53 WSW 10 17 30.02 1017 10 16 0.00 0.00
9:53 am 09:53 Sunny 64 17.8 40 4.4 41 41 W 10 17 30.02 1017 10 16 0.00 0.00
10:53 am 10:53 Sunny 66 18.9 33 0.6 29 29 W 14 22 30.02 1017 10 16 0.00 0.00
11:53 am 11:53 Sunny 68 20 31 -0.6 25 25 W 13 20 30.01 1016 10 16 0.00 0.00
12:53 pm 12:53 Sunny 69 20.6 31 -0.6 24 24 W 16 26 30.01 1016 10 16 0.00 0.00
1:53 pm 13:53 Mostly Sunny 71 21.7 35 1.7 27 27 WNW 17 28 29.99 1016 10 16 0.00 0.00
2:53 pm 14:53 Sunny 71 21.7 35 1.7 27 27 WNW 18 30 29.98 1015 10 16 0.00 0.00
3:53 pm 15:53 Mostly Sunny 70 21.1 36 2.2 29 29 WNW 18 30 29.97 1015 10 16 0.00 0.00
4:53 pm 16:53 Partly Cloudy 68 20 39 3.9 35 35 NW 15 24 29.96 1015 10 16 0.00 0.00
5:53 pm 17:53 Mostly Sunny 69 20.6 37 2.8 31 31 NW 21 33 29.96 1015 10 16 0.00 0.00
6:53 pm 18:53 Mostly Sunny 68 20 38 3.3 33 33 NW 16 26 29.96 1014 10 16 0.00 0.00
7:53 pm 19:53 Sunny 65 18.3 40 4.4 40 40 NW 9 15 29.95 1014 10 16 0.00 0.00
8:53 pm 20:53 Clear 61 16.1 40 4.4 46 46 WNW 6 9 29.95 1014 10 16 0.00 0.00
9:53 pm 21:53 Clear 56 13.3 42 5.6 60 60 W 7 11 29.96 1015 10 16 0.00 0.00
10:53 pm 22:53 Clear 58 14.4 42 5.6 56 56 WNW 8 13 29.97 1015 10 16 0.00 0.00
11:53 pm 23:53 Clear 56 13.3 42 5.6 60 60 WNW 7 11 29.96 1015 10 16 0.00 0.00

Powered by AerisWeather